CAPE
86 64 55 67 24 6 7 9 2 0 8 7 9 3 0 0 0 0 0 0 0 0 0 1 0 9 0 0 42 34 23 0 3 0 0 1 9 9 14 0 0 0 0 0
93 24 69 68 47 0 15 8 50 59 1 0 0 0 0 0 0 0 0 0 0 0 0 11 0 1 112 15 43 19 70 4 0 0 0 18 21 0 0 0 0 0 0 0
118 6 84 72 62 1 24 20 29 80 31 0 0 0 0 0 0 0 0 0 1 0 0 2 58 95 90 54 1 0 39 35 0 0 0 0 13 0 0 0 0 0 0 0
139 13 86 74 77 7 31 20 43 31 23 17 0 0 0 0 0 0 0 1 0 0 0 0 9 93 40 42 0 0 0 0 0 0 0 0 1 2 0 0 0 0 0 0
41 28 33 73 81 31 18 19 31 63 26 17 1 0 0 0 0 0 0 1 0 0 0 0 9 94 81 0 0 0 0 0 0 0 0 0 0 0 0 0 0 0 0 0
10 17 15 76 87 61 9 3 25 38 0 4 0 0 0 0 0 0 0 0 1 14 0 82 68 149 99 38 0 0 4 0 0 0 0 0 0 0 0 0 0 0 0 0
7 8 21 80 80 10 19 2 44 84 25 11 0 0 0 0 0 0 44 1 7 99 62 67 4 0 19 129 43 13 14 5 0 0 0 0 0 0 0 0 0 0 0 0
43 14 22 74 49 29 3 1 67 81 38 3 0 0 0 0 0 48 40 82 164 123 220 38 4 13 0 5 1 1 25 0 0 0 0 0 0 0 0 0 0 0 0 0
36 36 33 45 41 44 34 0 21 12 80 7 0 0 0 0 18 79 23 105 50 125 329 148 5 1 0 0 0 0 0 0 0 0 0 0 0 0 0 0 0 0 0 0
56 44 47 21 51 69 36 0 23 6 6 50 6 0 0 2 217 143 47 31 2 0 0 108 7 69 0 0 0 0 0 0 0 0 0 0 0 0 0 0 0 0 0 0
51 62 78 53 40 85 54 2 0 11 5 0 58 3 0 17 140 4 1 2 12 65 30 74 266 68 14 41 0 0 0 0 0 0 0 0 0 0 0 0 0 0 0 0
60 49 27 59 43 44 2 0 1 14 12 5 0 45 10 33 46 0 0 0 49 125 201 290 14 58 0 0 4 0 0 0 0 0 0 0 0 0 0 0 0 0 0 0
63 38 53 32 27 9 0 0 11 39 20 8 1 90 43 36 39 5 0 0 107 527 442 74 175 81 0 32 69 0 0 0 0 0 0 0 0 0 0 0 0 0 0 0
56 37 43 33 5 0 0 14 31 41 2 0 29 35 26 23 205 286 15 233 594 755 235 13 0 70 24 15 0 0 0 0 0 0 0 0 0 0 0 0 0 0 0 0
67 40 33 26 4 24 42 20 37 30 42 31 32 16 2 38 114 78 207 523 543 178 0 0 225 5 47 0 0 0 0 0 0 0 0 0 0 0 0 0 0 0 0 0
6 18 34 35 47 41 69 54 44 7 59 33 1 0 0 76 75 77 8 291 497 151 6 102 0 0 0 0 0 0 0 0 0 0 0 0 0 0 0 0 0 0 0 0
1 0 16 46 9 8 114 62 12 0 67 28 2 0 0 0 9 0 21 0 0 9 0 1 0 0 0 0 0 0 0 0 0 0 0 0 0 0 0 0 0 0 0 0
13 9 6 0 0 9 31 0 0 0 0 0 0 0 0 0 4 0 0 10 0 0 0 0 0 0 0 0 0 0 0 0 0 0 0 0 0 0 0 0 0 0 0 0
0 0 0 4 4 28 49 0 0 0 0 0 0 0 0 0 0 0 0 0 0 0 0 0 0 0 0 0 0 0 0 0 0 0 0 0 0 0 0 0 0 0 0 0
0 1 71 34 16 0 0 0 0 0 0 0 0 0 0 0 0 2 0 0 0 0 0 0 0 0 0 0 0 0 0 0 0 0 0 0 0 0 0 0 0 0 0 0
6 22 8 0 0 0 0 0 0 0 0 0 0 0 0 0 0 0 0 0 0 0 0 0 0 0 1 0 0 0 0 0 0 0 0 0 0 0 0 0 0 0 0 0
10 0 0 0 1 0 0 0 0 0 0 0 0 0 0 0 0 0 1 0 0 0 0 0 0 0 0 0 0 0 0 0 0 0 0 0 0 0 0 0 0 0 0 0
0 0 0 0 0 0 0 0 0 0 0 0 0 0 0 0 0 0 0 1 0 0 0 0 0 0 0 0 0 0 0 0 0 0 0 0 0 0 0 0 0 0 0 0
0 0 0 0 0 0 0 0 0 0 0 0 0 0 0 0 0 0 0 0 0 0 0 0 0 0 0 0 0 0 0 0 0 0 0 0 0 0 0 0 0 0 0 0
0 0 0 0 0 0 0 0 0 0 1 0 1 0 0 0 0 0 0 0 0 0 0 0 0 0 0 0 0 0 0 0 0 0 0 0 0 0 0 0 0 0 0 0
0 0 0 0 0 0 0 0 0 0 0 0 0 0 0 0 0 0 0 0 0 0 0 0 0 0 0 0 0 0 0 0 0 0 0 0 0 0 0 0 0 0 0 0
0 0 0 0 0 1 1 0 0 0 0 0 0 0 0 0 0 0 0 0 0 0 0 0 0 0 0 0 0 0 0 0 0 0 0 0 0 0 0 0 0 0 0 0
CIN
0 -4 -1 -9 -8 -2 -1 -13 -19 0 -53 0 -2 -1 0 0 0 0 0 0 0 0 0 -9 0 -25 0 0 -20 -7 -53 0 -132 -1 -4 -8 -18 -35 -64 0 0 0 0 0
0 -12 -1 -5 -2 0 -16 -14 -9 -39 -7 0 0 0 0 0 0 0 0 0 0 0 0 -17 0 -12 -118 -62 -42 -37 -85 -22 0 0 0 -28 -19 0 0 0 0 0 0 0
0 -40 -1 -6 -4 0 -5 -16 -3 -4 -58 0 0 0 0 0 0 0 0 -3 -22 0 0 -15 -16 -138 -108 -119 -40 0 -70 -40 0 0 0 0 -6 -8 -6 0 0 0 0 0
0 -9 0 -4 -8 -6 -9 -25 -5 -12 -1 0 0 0 0 0 0 0 0 -14 -5 0 0 -2 -11 -81 -182 -108 0 0 0 0 0 0 0 0 -2 -3 0 -4 -7 0 0 0
0 0 -3 -2 -13 -1 -51 -23 -14 -18 -5 -1 -1 0 0 0 0 0 0 -18 0 0 0 0 -39 -18 -67 -2 0 0 0 0 0 0 0 0 0 0 0 0 0 0 0 0
0 0 0 -4 -10 -2 -1 -56 -94 -26 -1 -3 0 0 0 0 0 0 0 0 -7 -36 0 -31 -51 -49 -62 -66 0 0 -89 0 0 0 0 0 0 0 0 0 0 0 0 0
0 0 0 -2 -9 -7 -16 -21 -53 -16 -6 -4 -1 0 0 0 0 -15 -69 -11 -62 -50 -166 -145 -67 0 -70 -66 -95 -59 -65 -18 0 0 0 0 0 0 0 0 0 0 0 0
0 0 0 -2 -11 -4 -11 -100 -12 -14 -15 -19 0 0 0 0 0 -88 -42 -108 -195 -129 -88 -161 -99 -77 0 -6 -15 -16 -30 0 0 0 0 0 0 0 0 0 0 0 0 0
0 0 -20 -13 -13 -2 -3 0 -48 -40 -5 -10 0 0 0 0 -65 -76 -178 -235 -339 -223 -88 -87 -67 -60 0 0 0 0 0 0 0 0 0 0 0 0 0 0 0 0 0 0
0 -14 -27 -30 -5 -9 -3 -1 -4 0 -1 -38 -8 0 0 -4 -55 -51 -167 -226 -41 -52 -183 -35 -26 -21 0 0 0 0 0 0 0 0 0 0 0 0 0 0 0 0 0 0
-10 -3 -7 -7 -3 -9 -27 -3 0 0 0 0 -41 -5 0 -60 -96 -62 -49 -62 -73 -75 -64 -64 -47 -56 -81 -55 -25 0 0 0 0 0 0 0 0 0 0 0 0 0 0 0
-16 -8 -5 -17 -4 -20 -2 0 -3 -2 0 0 0 -133 -224 -74 -149 0 -2 0 -129 -59 -67 -104 -15 -125 -34 0 -3 0 0 0 0 0 0 0 0 0 0 0 0 0 0 0
-12 -8 -13 -1 -20 -49 0 0 -7 0 0 -2 -2 -39 -200 -299 -336 -56 0 0 -208 -60 -183 -309 -199 -66 0 -65 -44 0 0 0 0 0 0 0 0 0 0 0 0 0 0 0
-13 -3 -1 -10 -26 0 0 -1 -6 -1 0 0 -52 -48 -133 -220 -183 -125 -168 -95 -201 -98 -274 -233 0 -131 -70 -127 0 0 0 0 0 0 0 0 0 0 0 0 0 0 0 0
-3 -3 -1 -2 -3 -1 -1 -2 -1 -1 0 0 -5 -59 -163 -146 -119 -103 -106 -95 -98 -148 0 0 -133 -71 -106 0 0 0 0 0 0 0 0 0 0 0 0 0 0 0 0 0
-66 -10 -4 -2 0 0 0 0 -2 -8 0 0 -15 0 0 -164 -169 -96 -9 -100 -132 -241 -7 -182 0 0 0 0 0 0 0 0 0 0 0 0 0 0 0 0 0 0 0 0
-4 -25 -1 0 -2 -7 -1 -7 -7 -21 -1 -2 -9 0 0 0 -179 0 -156 0 0 -191 0 -190 0 0 0 0 0 0 0 0 0 0 0 0 0 0 0 0 0 0 0 0
-20 -11 -2 0 0 -8 -4 0 0 0 0 0 0 0 -13 0 -36 0 0 -139 0 0 0 0 0 0 0 0 0 0 0 0 0 0 0 0 0 0 0 0 0 0 0 0
-5 0 0 0 -9 -6 -7 0 0 0 0 0 0 0 0 0 0 0 0 0 0 0 0 0 0 0 0 0 0 0 0 0 0 0 0 0 0 0 0 0 0 0 0 0
0 -2 -1 -1 -9 0 0 -2 0 0 0 0 0 0 0 0 -1 0 0 0 0 0 0 0 0 0 0 0 0 0 0 0 0 0 0 0 0 0 0 -1 0 0 0 0
-7 -7 -3 0 0 -8 -4 0 0 0 0 0 0 0 0 0 0 0 0 0 0 0 0 0 0 0 0 0 0 0 0 0 0 0 0 0 0 0 0 0 0 0 0 0
-20 0 -17 0 -9 0 0 0 0 0 0 0 0 0 0 0 0 0 0 0 0 0 0 0 0 0 0 0 0 0 0 0 0 0 0 0 0 0 0 0 0 0 0 0
0 0 0 0 0 0 0 0 0 0 0 0 0 0 0 0 0 0 0 0 0 0 0 0 0 0 0 0 0 0 0 0 0 0 0 0 0 0 0 0 0 0 0 0
0 0 0 0 0 0 0 0 0 0 0 0 0 0 0 0 0 0 0 0 0 -1 0 0 0 0 0 0 0 0 0 0 0 0 0 0 0 0 0 0 0 0 0 0
0 0 0 0 0 0 0 0 0 0 0 0 -1 0 0 0 0 0 0 -1 -1 0 0 0 0 0 0 0 0 0 0 0 0 0 0 0 0 0 0 0 0 0 0 0
0 0 0 0 0 0 0 0 0 0 0 0 0 0 0 0 0 0 -2 0 -2 0 0 0 0 0 0 0 0 0 0 0 0 0 0 0 0 0 0 0 0 0 0 0
0 0 0 0 0 0 0 0 0 0 0 0 0 0 0 0 0 0 0 0 0 0 0 0 0 0 0 0 0 0 0 0 0 0 0 0 0 0 0 0 0 0 0 0
Wind_Speed
25 20 29 26 22 24 18 5 7 10 14 8 4 14 12 12 22 13 11 5 1 1 8 5 7 5 8 4 9 5 9 6 4 16 20 15 6 6 6 6 6 3 6 7
28 18 30 28 27 32 7 7 5 9 15 12 13 8 14 19 17 17 7 4 3 3 4 5 8 8 6 4 5 6 2 2 3 1 4 3 3 5 4 4 4 4 7 7
33 18 32 32 30 33 5 6 8 6 9 5 19 15 15 21 18 20 20 11 7 5 5 5 5 3 1 6 5 2 7 0 6 7 7 4 4 5 6 4 5 4 6 5
31 22 32 33 31 32 7 4 10 7 12 17 11 18 12 18 16 16 12 12 8 8 5 5 0 4 3 2 1 2 5 4 1 4 5 5 4 1 4 4 5 7 9 8
24 25 21 32 31 30 9 6 6 6 4 15 17 14 22 25 22 13 19 15 10 9 7 8 7 5 5 6 1 3 1 3 4 1 5 7 4 6 6 6 6 5 2 4
25 23 26 32 31 24 7 4 4 8 9 15 18 21 17 20 19 16 19 10 7 7 10 4 4 3 9 10 10 7 7 4 4 2 4 7 7 7 6 6 4 3 3 5
26 24 28 32 32 29 2 5 2 4 5 13 16 22 19 24 25 18 10 15 8 6 7 8 9 11 11 9 4 5 6 6 4 3 4 2 10 2 5 5 5 8 8 9
27 25 26 31 31 30 9 2 2 2 2 12 15 23 20 18 19 15 11 6 5 9 6 6 5 6 7 3 4 3 4 5 3 6 4 5 9 2 3 4 4 5 7 7
25 25 27 30 27 25 10 10 2 1 2 10 17 21 18 16 15 7 1 3 7 8 5 5 6 6 7 5 3 8 6 5 7 2 5 7 7 4 4 3 2 5 8 8
28 30 30 28 25 23 11 4 6 2 4 4 11 18 22 11 5 5 5 1 7 4 3 4 4 5 9 6 9 4 4 4 5 2 2 8 5 6 1 7 8 4 7 6
26 27 25 23 22 21 15 8 3 2 2 9 8 10 13 14 8 8 6 6 2 2 4 4 4 4 4 5 9 9 8 7 4 4 2 7 6 5 7 6 4 7 7 6
23 22 21 23 23 23 16 6 3 3 3 6 13 7 3 13 10 9 1 6 9 7 5 3 4 3 3 4 3 2 2 8 8 8 8 5 9 12 6 8 7 5 7 7
21 21 22 24 23 20 17 6 4 2 2 7 7 4 4 7 9 7 8 3 4 4 5 6 3 5 5 4 5 4 1 5 4 6 1 10 12 9 8 8 9 11 11 8
19 19 22 22 21 19 13 5 5 2 3 3 5 4 3 4 10 9 6 6 4 4 3 5 4 5 4 5 5 5 6 5 6 6 9 13 10 7 8 11 13 15 16 15
20 19 21 21 18 15 9 2 2 3 5 2 2 4 9 3 9 6 15 8 8 5 3 4 2 3 6 1 4 1 1 4 5 5 4 8 5 6 12 16 14 12 14 14
17 14 19 20 18 19 4 3 7 12 7 5 1 3 6 7 6 7 3 4 6 5 4 2 2 2 5 5 4 1 5 8 3 6 10 16 14 15 14 16 13 13 14 12
15 15 19 22 22 10 5 3 2 9 11 4 2 3 6 7 3 3 5 8 4 4 3 3 3 2 5 3 4 6 9 10 10 14 18 10 4 10 13 14 13 15 13 11
18 22 19 18 19 7 2 2 6 3 3 4 4 2 5 5 3 4 5 4 4 5 3 2 3 4 3 3 6 9 12 14 13 11 13 16 15 14 12 11 11 12 9 7
24 21 20 7 5 3 3 10 10 9 4 5 3 5 2 4 3 3 5 3 3 2 3 1 5 1 2 3 9 6 9 8 14 14 16 15 15 13 12 12 9 8 9 10
27 11 3 4 1 2 5 5 3 5 4 5 4 2 2 2 2 2 3 1 3 3 3 2 4 2 4 6 7 7 11 13 14 16 12 14 12 12 11 9 9 11 11 10
2 4 2 3 3 2 2 3 4 1 4 4 2 3 4 2 4 2 1 2 1 3 4 5 1 3 3 3 4 7 10 8 8 11 11 12 11 12 12 12 12 10 9 8
6 9 6 4 1 3 6 3 3 5 2 2 2 3 3 1 2 4 1 3 2 2 3 3 3 2 7 6 7 11 11 11 13 13 13 11 11 13 12 11 11 10 8 7
4 6 6 3 4 7 4 3 2 3 1 1 2 2 2 3 4 3 2 4 1 2 3 3 2 7 5 7 10 11 10 12 15 16 16 16 14 12 12 11 10 11 10 7
6 5 5 4 4 3 2 2 3 1 1 3 4 2 2 1 4 1 5 1 1 2 2 3 3 7 8 10 10 14 12 13 14 13 13 13 13 12 10 9 8 9 9 7
6 5 6 5 0 1 1 1 2 3 1 3 3 3 3 2 4 2 4 2 3 3 3 2 5 7 11 11 11 12 12 12 11 11 11 11 11 11 10 8 8 9 6 6
5 7 4 1 2 3 3 3 3 4 2 1 3 3 4 3 3 3 2 4 2 2 2 3 6 10 10 10 11 10 11 11 10 9 8 9 10 10 9 7 7 5 5 5
6 5 3 2 4 4 2 3 2 3 2 2 3 5 2 1 3 3 4 3 2 3 3 3 7 9 11 12 8 10 11 11 10 9 8 9 9 9 7 8 5 6 5 5
Wind_Direction
215 223 207 189 183 172 177 171 191 154 146 169 217 225 207 235 260 268 272 255 269 269 218 232 188 221 219 197 137 142 189 132 152 224 244 254 178 195 179 121 265 191 146 269
220 227 210 192 176 176 168 178 165 177 157 195 216 221 217 235 250 257 273 229 211 273 269 175 198 217 308 56 108 143 132 247 76 288 292 331 232 233 218 174 95 195 129 259
211 217 206 190 178 183 197 155 182 153 212 215 194 201 208 219 245 262 262 260 232 282 285 256 238 118 11 20 88 187 98 356 149 186 214 226 269 215 263 171 111 209 203 251
211 212 205 192 180 184 203 208 192 175 188 209 214 192 192 205 230 222 247 267 219 209 238 249 56 124 102 69 322 118 116 167 282 295 312 334 296 355 332 316 225 147 235 210
203 215 214 192 181 180 224 189 183 150 151 186 204 202 206 201 218 231 235 231 242 224 195 189 196 163 143 172 145 147 235 206 127 320 338 20 15 332 313 301 301 326 344 265
194 217 228 194 178 174 199 221 282 148 188 184 187 208 202 212 210 232 238 210 231 224 227 205 202 183 162 158 149 184 149 132 85 239 357 10 351 246 236 244 275 243 277 295
195 207 223 199 179 185 223 220 261 133 198 188 201 191 204 200 225 223 230 211 212 224 123 59 25 25 45 99 89 152 149 121 100 177 41 33 242 295 119 115 50 62 78 79
194 202 223 190 188 186 212 290 324 217 238 189 193 196 200 212 232 237 226 269 314 153 82 89 63 344 18 355 112 46 84 106 96 132 183 287 317 143 151 133 36 33 73 62
199 203 201 183 189 186 197 235 351 313 220 224 195 188 196 204 216 211 87 310 53 335 118 98 148 186 186 171 92 33 56 83 119 129 144 202 236 156 40 64 55 11 62 47
188 183 182 181 181 180 187 230 203 2 277 263 186 194 201 199 157 141 130 164 38 17 26 88 125 235 178 147 153 166 40 8 143 132 178 287 243 137 100 93 223 73 65 61
167 169 172 171 168 173 190 200 141 318 283 305 306 201 192 201 171 143 182 81 89 355 211 125 210 119 215 108 161 167 158 137 199 102 98 277 178 77 131 196 63 79 63 56
169 171 166 163 167 177 186 206 160 141 282 274 318 307 316 211 149 126 148 162 158 191 95 51 96 55 45 121 197 180 131 172 175 161 210 229 71 101 82 86 93 60 69 45
171 171 164 163 180 174 182 175 132 147 302 276 261 255 325 14 111 136 119 283 228 156 163 150 126 128 124 134 245 97 85 141 113 83 295 94 89 72 74 73 75 74 50 38
172 170 166 173 185 180 169 181 174 261 342 157 306 275 307 262 76 116 194 186 117 97 58 96 120 132 162 197 194 135 201 112 143 103 109 83 50 56 87 68 77 76 60 57
167 170 167 175 180 160 165 178 263 253 248 293 241 309 328 72 129 113 173 150 137 156 84 79 167 150 89 344 72 44 117 165 136 207 124 103 103 79 87 82 80 78 84 72
152 161 169 173 160 147 136 197 204 232 238 256 89 277 349 30 68 90 87 111 78 75 109 180 53 63 100 106 136 104 94 66 81 130 98 100 95 75 80 88 85 82 85 82
166 164 166 153 157 154 199 150 158 208 204 241 47 17 356 10 42 354 19 28 59 81 75 49 118 53 78 113 132 153 103 89 72 114 113 98 88 107 94 95 94 91 89 88
168 166 160 144 149 214 45 279 273 155 210 88 97 346 30 345 25 42 358 41 44 31 103 341 82 14 52 72 109 109 108 94 73 64 87 105 111 106 108 108 105 102 104 106
141 139 133 135 225 82 227 245 235 214 131 113 95 121 187 347 50 34 25 68 74 356 98 130 81 165 109 142 122 101 135 122 122 104 104 107 112 120 117 115 127 122 106 90
132 150 163 74 192 322 334 251 27 32 19 41 85 73 90 39 63 38 94 349 140 100 253 88 75 85 70 42 79 94 106 115 122 113 119 121 126 130 136 122 102 100 97 91
58 98 96 71 94 246 323 54 74 17 40 26 43 114 122 327 110 156 184 166 172 102 242 120 152 149 165 138 106 103 102 100 107 113 121 130 125 116 108 99 94 89 85 84
127 112 129 160 47 45 84 52 4 46 116 31 87 66 82 335 147 102 306 114 57 148 163 117 152 126 130 121 112 102 103 109 118 124 124 116 118 111 109 104 101 94 89 83
67 60 59 43 335 55 71 140 97 90 96 190 90 59 122 22 45 63 92 71 141 74 74 171 116 133 129 121 113 114 116 111 101 89 90 89 86 81 93 99 104 102 87 78
73 63 69 40 54 55 21 17 79 119 108 95 98 67 106 79 56 93 88 214 126 93 116 208 138 145 128 123 119 120 109 99 101 98 95 95 96 93 85 86 91 103 97 93
71 49 56 56 60 39 329 353 73 1 6 57 68 63 78 55 99 73 115 117 159 176 185 108 137 130 121 113 111 109 109 106 104 110 111 114 112 106 101 99 101 102 105 98
58 48 83 18 94 51 27 10 54 9 333 323 78 98 73 53 111 81 56 123 116 92 62 110 126 129 125 118 113 110 106 106 110 113 121 120 118 118 117 115 115 117 120 112
38 33 10 17 65 59 24 21 2 308 46 54 60 61 82 115 71 60 21 46 42 98 83 90 109 117 119 116 120 114 117 115 115 118 107 110 116 125 115 96 111 137 103 112